[[{"header":{"parameterUnit":"m.s-1","parameterCategory":2,"la1":30.2991,"la2":30.254,"lo1":-89.0895,"lo2":-89.0444,"dy":0.0017,"dx":0.0017,"nx":28,"ny":28,"refTime":"2025-12-20T09:00:00:Z","depth":"0","parameterNumber":2,"parameterNumberName":"U-component_of_CURRENTS"},"data":[0,0,0,0,0,0,0,0,0,0,0,0,0,0,0,0,0,0,0,0,0,0,0,0,0,0,0,0,0,0,0,0,0,0,0,0,0,0,0,0,0,0,0,0,0,0,0,0,0,0,0,0,0,0,0,0,0,0,-0.2552,-0.2553,0,-0.2624,-0.2625,-0.2626,-0.2607,-0.2606,-0.2605,-0.2604,-0.2554,-0.2553,-0.2553,0,0,0,0,0,0,0,0,0,0,0,0,0,-0.2396,-0.2399,-0.2552,-0.2553,-0.2554,-0.2624,-0.2625,-0.2626,-0.2607,-0.2606,-0.2604,-0.2603,-0.2554,-0.2553,-0.2553,0,0,0,0,0,0,0,0,0,0,0,0,0,-0.2462,-0.2399,-0.2552,-0.2556,-0.2558,-0.2624,-0.2625,-0.2626,-0.2607,-0.2606,-0.2604,-0.2603,-0.2554,-0.2553,-0.2553,-0.2582,0,0,-0.2551,-0.2551,0,0,0,0,0,0,0,0,-0.2458,-0.2467,-0.2554,-0.2556,-0.2558,-0.2608,-0.2552,-0.2606,-0.2608,-0.2584,-0.2604,-0.2602,-0.2564,-0.2563,-0.2576,-0.258,-0.2577,-0.2551,-0.2551,-0.2551,-0.2551,0,0,0,0,0,0,0,-0.2454,-0.2464,-0.2576,-0.2556,-0.2558,-0.2555,-0.2562,-0.2562,-0.2577,-0.2586,-0.2586,-0.2601,-0.2564,-0.2577,-0.2575,-0.2577,-0.2551,-0.2551,-0.255,-0.255,-0.2604,-0.2606,0,0,0,0,0,0,-0.2455,-0.246,-0.2574,-0.2579,-0.2508,-0.2559,-0.2567,-0.2591,-0.258,-0.2579,-0.2602,-0.26,-0.2579,-0.2575,-0.2573,-0.2619,-0.2551,-0.255,-0.255,-0.2602,-0.2605,-0.2606,0,0,0,0,0,0,-0.2452,-0.2465,-0.2571,-0.2523,-0.2537,-0.2564,-0.259,-0.2593,-0.2602,-0.2594,-0.2589,-0.2609,-0.2577,-0.2573,-0.2584,-0.2616,-0.255,-0.255,-0.26,-0.2603,-0.2605,-0.2703,0,0,0,0,0,0,-0.2447,-0.2463,-0.2475,-0.2524,-0.254,-0.2621,-0.2593,-0.2596,-0.2616,-0.2614,-0.2598,-0.2592,-0.2576,-0.2586,-0.2584,-0.2614,-0.2549,-0.2598,-0.2602,-0.2605,-0.2697,-0.2708,-0.2718,0,0,0,0,0,-0.2441,-0.2472,-0.2475,-0.2488,-0.2557,-0.2623,-0.2631,-0.2641,-0.2618,-0.2639,-0.2627,-0.2593,-0.2605,-0.2587,-0.2585,-0.2615,-0.2597,-0.2601,-0.2604,-0.2693,-0.2706,-0.2718,0,0,0,0,0,0,-0.241,-0.2475,-0.2479,-0.2526,-0.2574,-0.2621,-0.2642,-0.2646,-0.2655,-0.2644,-0.2618,-0.2613,-0.2636,-0.2614,-0.2595,-0.264,-0.2594,-0.2598,-0.2662,-0.2674,-0.2685,-0.2684,-0.2549,0,0,0,0,0,-0.2411,-0.2447,-0.2508,-0.2544,-0.2571,-0.2604,-0.2627,-0.2641,-0.2662,-0.2664,-0.2654,-0.2645,-0.2654,-0.2653,-0.2655,-0.268,-0.2658,-0.2697,-0.2708,-0.2717,-0.2715,-0.2722,-0.2733,-0.2619,-0.2619,-0.2619,0,0,-0.2407,-0.2448,-0.2466,-0.2539,-0.2572,-0.2632,-0.2613,-0.2662,-0.2703,-0.2656,-0.2691,-0.2681,-0.2669,-0.2703,-0.271,-0.2685,-0.274,-0.2722,-0.2729,-0.2722,-0.2727,-0.2738,-0.2748,-0.2622,-0.2621,-0.2621,0,0,-0.2431,-0.2459,-0.2501,-0.2551,-0.2616,-0.2648,-0.2663,-0.2717,-0.2729,-0.2769,-0.2748,-0.276,-0.2765,-0.2775,-0.2777,-0.2844,-0.2796,-0.2839,-0.2888,-0.2897,-0.2906,-0.2913,-0.2911,-0.2917,-0.2842,-0.2842,-0.2842,0,-0.2424,-0.249,-0.2522,-0.2586,-0.2633,-0.2657,-0.2722,-0.2752,-0.2798,-0.2816,-0.2788,-0.2822,-0.2805,-0.2857,-0.2874,-0.2868,-0.2854,-0.2844,-0.291,-0.2917,-0.2923,-0.2918,-0.2924,-0.2847,-0.2847,-0.2846,-0.2846,0,-0.2487,-0.2543,-0.2577,-0.2663,-0.2715,-0.2778,-0.2836,-0.2871,-0.2878,-0.2903,-0.2947,-0.2937,-0.2949,-0.2955,-0.2929,-0.2977,-0.2947,-0.2924,-0.2878,-0.294,-0.2931,-0.2936,-0.2855,-0.2853,-0.2851,-0.285,0,0,-0.2476,-0.2596,-0.2607,-0.2661,-0.2765,-0.2816,-0.289,-0.2968,-0.3003,-0.3034,-0.3075,-0.3098,-0.3075,-0.3075,-0.3055,-0.306,-0.309,-0.3006,-0.3004,-0.3002,-0.3098,-0.2927,-0.2914,-0.3074,-0.3075,-0.3076,-0.3077,0,-0.2519,-0.2629,-0.2687,-0.2798,-0.2867,-0.2925,-0.2991,-0.3057,-0.3087,-0.3128,-0.3137,-0.3157,-0.3129,-0.312,-0.3132,-0.309,-0.3104,-0.3091,-0.3038,-0.3036,-0.2875,-0.2915,-0.2757,-0.273,-0.3081,-0.3082,-0.3082,0,-0.2567,-0.2639,-0.2741,-0.287,-0.2904,-0.2966,-0.3066,-0.3129,-0.3195,-0.3211,-0.3244,-0.3234,-0.3256,-0.3205,-0.3203,-0.319,-0.3153,-0.3125,-0.3124,-0.2928,-0.2872,-0.2722,-0.2724,-0.2699,-0.3089,-0.3088,-0.3088,0,-0.2537,-0.2682,-0.2755,-0.2804,-0.2944,-0.2992,-0.3059,-0.3143,-0.3187,-0.3247,-0.3259,-0.3301,-0.3285,-0.3275,-0.3217,-0.3204,-0.3195,-0.3172,-0.3001,-0.2989,-0.2822,-0.2791,-0.2785,-0.3179,-0.3179,-0.3179,-0.3179,0,-0.2568,-0.2635,-0.2741,-0.2788,-0.2879,-0.2976,-0.3058,-0.3124,-0.3196,-0.3231,-0.3279,-0.329,-0.3293,-0.3285,-0.3246,-0.3125,-0.3224,-0.3006,-0.2974,-0.285,-0.2823,-0.2764,-0.2798,-0.3179,-0.3179,-0.3179,-0.3179,0,-0.2536,-0.2604,-0.2698,-0.2826,-0.2866,-0.2923,-0.3048,-0.3094,-0.3166,-0.3205,-0.3216,-0.3272,-0.3226,-0.3229,-0.3194,-0.312,-0.2981,-0.2997,-0.284,-0.2786,-0.2529,-0.2574,-0.2524,-0.2455,-0.278,-0.2776,-0.2773,0,-0.254,-0.2574,-0.2691,-0.2727,-0.2785,-0.2879,-0.2936,-0.3054,-0.3094,-0.3176,-0.3177,-0.3169,-0.3123,-0.3028,-0.2887,-0.2782,-0.283,-0.2599,-0.2529,-0.2484,-0.2515,-0.2564,-0.2516,-0.2372,-0.2366,-0.2361,-0.2356,0,-0.2538,-0.2552,-0.2607,-0.267,-0.273,-0.2809,-0.2894,-0.2921,-0.3029,-0.3046,-0.3049,-0.3021,-0.289,-0.2678,-0.2533,-0.2462,-0.2502,-0.2475,-0.2489,-0.223,-0.2228,-0.2155,-0.2418,-0.2308,-0.2313,-0.2316,-0.2319,-0.2321,-0.2508,-0.2517,-0.2552,-0.2602,-0.2665,-0.2701,-0.2715,-0.2769,-0.2789,-0.2748,-0.2833,-0.2691,-0.2531,-0.2246,-0.2187,-0.1972,-0.2086,-0.1907,-0.1981,-0.2047,-0.1924,-0.2053,-0.1859,-0.1861,-0.1863,-0.1864,-0.1866,0,-0.2476,-0.2461,-0.2491,-0.2525,-0.2532,-0.2603,-0.2654,-0.2608,-0.2548,-0.2487,-0.2424,-0.2192,-0.1969,-0.1862,-0.163,-0.1534,-0.154,-0.1539,-0.1618,-0.1601,-0.175,-0.1669,-0.1351,-0.1351,-0.1351,-0.1351,-0.1351,-0.1351,-0.2451,-0.243,-0.2419,-0.2377,-0.239,-0.2358,-0.2351,-0.2267,-0.2194,-0.1968,-0.1803,-0.1719,-0.1634,-0.1629,-0.1462,-0.1386,-0.1411,-0.134,-0.1429,-0.158,-0.1623,-0.1663,-0.1594,-0.1265,-0.1265,-0.1196,-0.1196,-0.1196]},{"header":{"parameterUnit":"m.s-1","parameterCategory":2,"la1":30.2991,"la2":30.254,"lo1":-89.0895,"lo2":-89.0444,"dy":0.0017,"dx":0.0017,"nx":28,"ny":28,"refTime":"2025-12-20T09:00:00:Z","depth":"0","parameterNumber":3,"parameterNumberName":"V-component_of_CURRENTS"},"data":[0,0,0,0,0,0,0,0,0,0,0,0,0,0,0,0,0,0,0,0,0,0,0,0,0,0,0,0,0,0,0,0,0,0,0,0,0,0,0,0,0,0,0,0,0,0,0,0,0,0,0,0,0,0,0,0,0,0,-0.0636,-0.0635,0,-0.0504,-0.0502,-0.0501,-0.0408,-0.0407,-0.0407,-0.0406,-0.0243,-0.024,-0.0236,0,0,0,0,0,0,0,0,0,0,0,0,0,-0.0714,-0.0713,-0.0637,-0.0635,-0.0634,-0.0504,-0.0502,-0.05,-0.0408,-0.0407,-0.0407,-0.0406,-0.0245,-0.024,-0.0235,0,0,0,0,0,0,0,0,0,0,0,0,0,-0.0639,-0.0713,-0.0637,-0.0573,-0.0566,-0.0505,-0.0502,-0.05,-0.0408,-0.0407,-0.0406,-0.0406,-0.0246,-0.024,-0.0235,-0.0216,0,0,-0.0217,-0.0215,0,0,0,0,0,0,0,0,-0.0644,-0.0636,-0.0584,-0.0578,-0.057,-0.0473,-0.047,-0.0404,-0.0408,-0.0466,-0.0406,-0.0405,-0.0319,-0.0307,-0.0282,-0.0208,-0.0201,-0.0217,-0.0213,-0.0211,-0.0209,0,0,0,0,0,0,0,-0.0649,-0.0641,-0.0582,-0.0583,-0.0574,-0.0519,-0.0508,-0.0456,-0.0397,-0.0461,-0.0455,-0.0443,-0.0315,-0.0288,-0.0278,-0.0199,-0.0217,-0.0212,-0.0208,-0.0206,-0.007,-0.007,0,0,0,0,0,0,-0.0675,-0.0646,-0.0586,-0.0578,-0.0607,-0.0518,-0.0506,-0.0504,-0.0398,-0.0382,-0.0444,-0.0439,-0.0298,-0.0284,-0.0271,-0.0216,-0.0211,-0.0206,-0.0202,-0.007,-0.007,-0.007,0,0,0,0,0,0,-0.0677,-0.0671,-0.0592,-0.061,-0.0596,-0.0519,-0.0516,-0.0501,-0.0473,-0.0386,-0.0368,-0.0431,-0.0297,-0.028,-0.0223,-0.021,-0.0203,-0.0198,-0.007,-0.007,-0.007,-0.0122,0,0,0,0,0,0,-0.068,-0.0673,-0.0682,-0.0612,-0.0596,-0.0561,-0.0517,-0.0499,-0.0468,-0.046,-0.0368,-0.0352,-0.0295,-0.0232,-0.0217,-0.0202,-0.0193,-0.007,-0.007,-0.007,-0.0121,-0.0124,-0.0126,0,0,0,0,0,-0.0684,-0.0699,-0.0684,-0.0676,-0.0611,-0.0562,-0.0548,-0.0488,-0.0469,-0.0459,-0.0395,-0.0355,-0.0219,-0.0228,-0.021,-0.0193,-0.0071,-0.007,-0.007,-0.012,-0.0123,-0.0126,0,0,0,0,0,0,-0.0734,-0.0689,-0.0671,-0.0671,-0.0625,-0.0547,-0.0535,-0.0498,-0.044,-0.0433,-0.0353,-0.0332,-0.0277,-0.0234,-0.0245,-0.0154,-0.0139,-0.0135,-0.0182,-0.0185,-0.0188,-0.0201,-0.0188,0,0,0,0,0,-0.0753,-0.0755,-0.0696,-0.0698,-0.0679,-0.0611,-0.0585,-0.0545,-0.0485,-0.0459,-0.0394,-0.0326,-0.0262,-0.0225,-0.0167,-0.012,-0.0088,-0.0098,-0.0101,-0.0104,-0.0104,-0.0055,-0.0053,-0.0068,-0.0068,-0.0068,0,0,-0.0774,-0.075,-0.0751,-0.0709,-0.0668,-0.0641,-0.0592,-0.0559,-0.0528,-0.0451,-0.0395,-0.0336,-0.0254,-0.0195,-0.0167,-0.0156,-0.0084,-0.0104,-0.0106,-0.0104,-0.0054,-0.0052,-0.0051,-0.0068,-0.0068,-0.0068,0,0,-0.0806,-0.0794,-0.0799,-0.0766,-0.0715,-0.0672,-0.0668,-0.0595,-0.0554,-0.0501,-0.0433,-0.0368,-0.0281,-0.0207,-0.0162,-0.0149,-0.0105,-0.0136,-0.0152,-0.0105,-0.0103,-0.0101,-0.0068,-0.0063,-0.0132,-0.0132,-0.0132,0,-0.0831,-0.0828,-0.0792,-0.0779,-0.0754,-0.0692,-0.0678,-0.0628,-0.0545,-0.0509,-0.0494,-0.0349,-0.0281,-0.0191,-0.0181,-0.0152,-0.0131,-0.0146,-0.0109,-0.0107,-0.0104,-0.007,-0.0064,-0.0135,-0.0135,-0.0134,-0.0134,0,-0.0853,-0.0849,-0.0848,-0.0815,-0.0786,-0.0767,-0.0697,-0.0661,-0.0614,-0.0555,-0.0471,-0.0379,-0.0292,-0.0258,-0.021,-0.0149,-0.0143,-0.0124,-0.0104,-0.0106,-0.007,-0.0062,-0.0138,-0.0138,-0.0137,-0.0136,0,0,-0.0904,-0.0873,-0.087,-0.0863,-0.0804,-0.0783,-0.0736,-0.0669,-0.064,-0.0556,-0.0509,-0.0384,-0.0338,-0.0285,-0.0215,-0.0165,-0.0122,-0.0143,-0.0139,-0.0118,-0.0035,0.0092,0.0113,-0.0106,-0.0105,-0.0104,-0.0022,0,-0.0927,-0.0929,-0.0895,-0.0887,-0.088,-0.0814,-0.0777,-0.071,-0.0649,-0.0593,-0.0482,-0.0418,-0.0346,-0.0314,-0.0248,-0.0163,-0.0104,-0.0147,-0.003,-0.0027,0.0081,0.0126,0.0159,0.0246,-0.0014,-0.0013,-0.0012,0,-0.0948,-0.095,-0.0954,-0.0926,-0.0916,-0.0899,-0.084,-0.0798,-0.0698,-0.0651,-0.0562,-0.0488,-0.0383,-0.0342,-0.0182,-0.0221,-0.0128,-0.006,-0.0055,0.009,0.0117,0.0209,0.027,0.0408,0.0,-0.0001,-0.0002,0,-0.1001,-0.0984,-0.0996,-0.0985,-0.0944,-0.093,-0.0901,-0.0816,-0.079,-0.0696,-0.0683,-0.0539,-0.0493,-0.0356,-0.0175,-0.0199,-0.0006,-0.0024,0.0185,0.0193,0.0262,0.0276,0.0469,0.0097,0.0097,0.0096,0.0096,0,-0.1036,-0.1042,-0.1028,-0.1034,-0.1048,-0.0991,-0.0985,-0.0932,-0.0871,-0.086,-0.0727,-0.0693,-0.05,-0.0355,-0.0197,0.0043,-0.0012,0.0201,0.0238,0.0246,0.0257,0.0414,0.0458,0.0099,0.0099,0.0098,0.0098,0,-0.1083,-0.1073,-0.1093,-0.1076,-0.1077,-0.1087,-0.1065,-0.1061,-0.0994,-0.0986,-0.0968,-0.0819,-0.0614,-0.037,-0.0139,0.0014,0.0343,0.0336,0.034,0.0379,0.0683,0.0722,0.0971,0.1069,0.0537,0.054,0.0544,0,-0.1106,-0.1122,-0.1143,-0.1176,-0.1174,-0.1183,-0.1194,-0.1132,-0.1134,-0.1062,-0.1071,-0.0871,-0.0692,-0.0262,0.0069,0.0418,0.0524,0.0622,0.0607,0.074,0.0808,0.0833,0.0896,0.0655,0.0659,0.0662,0.0664,0,-0.1148,-0.1158,-0.1181,-0.1262,-0.1296,-0.1324,-0.1337,-0.136,-0.13,-0.1273,-0.1205,-0.1051,-0.0588,-0.0151,0.0362,0.0553,0.0739,0.07,0.083,0.0935,0.0979,0.1077,0.0544,0.0693,0.069,0.0688,0.0686,0.0685,-0.118,-0.122,-0.1271,-0.1348,-0.1401,-0.1464,-0.1498,-0.1496,-0.1495,-0.1418,-0.1268,-0.0928,-0.0333,0.0411,0.0624,0.1067,0.1015,0.1161,0.1196,0.121,0.1329,0.0881,0.1088,0.1088,0.1087,0.1087,0.1086,0,-0.1228,-0.1281,-0.1359,-0.1452,-0.1537,-0.154,-0.1596,-0.1616,-0.1628,-0.138,-0.1217,-0.0424,0.017,0.071,0.1316,0.1532,0.154,0.1625,0.1627,0.1668,0.1262,0.1294,0.1565,0.1565,0.1565,0.1565,0.1565,0.1564,-0.1258,-0.1348,-0.14,-0.1561,-0.1629,-0.1733,-0.1772,-0.1769,-0.1597,-0.119,-0.0663,-0.0165,0.0588,0.1376,0.1873,0.1916,0.2066,0.2074,0.2167,0.1832,0.1789,0.1747,0.1791,0.2162,0.2163,0.2543,0.2546,0.2549]}],[{"header":{"parameterUnit":"m.s-1","parameterCategory":2,"la1":30.2991,"la2":30.254,"lo1":-89.0895,"lo2":-89.0444,"dy":0.0017,"dx":0.0017,"nx":28,"ny":28,"refTime":"2025-12-20T09:00:00:Z","depth":"2","parameterNumber":2,"parameterNumberName":"U-component_of_CURRENTS"},"data":[0,0,0,0,0,0,0,0,0,0,0,0,0,0,0,0,0,0,0,0,0,0,0,0,0,0,0,0,0,0,0,0,0,0,0,0,0,0,0,0,0,0,0,0,0,0,0,0,0,0,0,0,0,0,0,0,0,0,-0.1713,-0.1713,0,-0.1755,-0.1755,-0.1756,-0.1764,-0.1764,-0.1763,-0.1763,-0.1827,-0.1829,-0.1831,0,0,0,0,0,0,0,0,0,0,0,0,0,-0.1645,-0.1646,-0.1713,-0.1713,-0.1714,-0.1755,-0.1755,-0.1756,-0.1764,-0.1764,-0.1763,-0.1763,-0.1826,-0.1829,-0.1831,0,0,0,0,0,0,0,0,0,0,0,0,0,-0.1681,-0.1647,-0.1713,-0.1722,-0.1723,-0.1754,-0.1755,-0.1756,-0.1764,-0.1764,-0.1763,-0.1763,-0.1825,-0.1828,-0.1832,-0.1864,0,0,-0.1841,-0.1843,0,0,0,0,0,0,0,0,-0.1679,-0.1683,-0.172,-0.1721,-0.1723,-0.1753,-0.1755,-0.1793,-0.1765,-0.175,-0.1763,-0.1762,-0.1804,-0.1809,-0.1819,-0.1866,-0.1869,-0.1841,-0.1843,-0.1845,-0.1846,0,0,0,0,0,0,0,-0.1676,-0.1681,-0.173,-0.1721,-0.1722,-0.1726,-0.173,-0.1762,-0.1781,-0.1751,-0.1751,-0.1755,-0.1805,-0.1816,-0.1821,-0.187,-0.1841,-0.1844,-0.1846,-0.1847,-0.2006,-0.2008,0,0,0,0,0,0,-0.167,-0.1679,-0.1729,-0.1731,-0.1697,-0.1727,-0.1732,-0.1744,-0.178,-0.1785,-0.1755,-0.1755,-0.1811,-0.1817,-0.1823,-0.191,-0.1845,-0.1848,-0.1849,-0.2004,-0.2007,-0.2009,0,0,0,0,0,0,-0.1668,-0.1674,-0.1727,-0.1705,-0.1712,-0.1729,-0.1743,-0.1746,-0.177,-0.1783,-0.1788,-0.1777,-0.1811,-0.1819,-0.1873,-0.191,-0.1849,-0.1852,-0.2001,-0.2005,-0.2008,-0.2053,0,0,0,0,0,0,-0.1666,-0.1673,-0.1685,-0.1705,-0.1713,-0.1759,-0.1743,-0.1747,-0.1771,-0.1772,-0.1804,-0.1808,-0.1811,-0.1869,-0.1876,-0.1914,-0.1854,-0.1998,-0.2003,-0.2007,-0.2049,-0.2058,-0.2066,0,0,0,0,0,-0.1664,-0.1681,-0.1685,-0.1691,-0.1726,-0.176,-0.1765,-0.1775,-0.1773,-0.1793,-0.1818,-0.1808,-0.1902,-0.1873,-0.1882,-0.1921,-0.1996,-0.2001,-0.2006,-0.2045,-0.2056,-0.2065,0,0,0,0,0,0,-0.1667,-0.1684,-0.1689,-0.1714,-0.174,-0.1761,-0.178,-0.1787,-0.1823,-0.1826,-0.1837,-0.1845,-0.1906,-0.1914,-0.1882,-0.1982,-0.1948,-0.1955,-0.1975,-0.1985,-0.1993,-0.2019,-0.1857,0,0,0,0,0,-0.167,-0.1695,-0.1708,-0.1741,-0.1746,-0.1768,-0.1784,-0.1792,-0.1821,-0.1835,-0.1859,-0.1892,-0.1934,-0.1958,-0.199,-0.2047,-0.2051,-0.2079,-0.2088,-0.2095,-0.2124,-0.2146,-0.2158,-0.2026,-0.2026,-0.2026,0,0,-0.1694,-0.1701,-0.1722,-0.1744,-0.1764,-0.1791,-0.1777,-0.1809,-0.1843,-0.1839,-0.1899,-0.1922,-0.1956,-0.2017,-0.2046,-0.2028,-0.2136,-0.2101,-0.2107,-0.2133,-0.2152,-0.2165,-0.2176,-0.203,-0.2029,-0.2029,0,0,-0.1766,-0.1747,-0.18,-0.1803,-0.1825,-0.1821,-0.1833,-0.1859,-0.1879,-0.1935,-0.1946,-0.199,-0.2052,-0.2082,-0.2106,-0.2185,-0.2177,-0.2202,-0.2268,-0.2288,-0.2298,-0.2308,-0.2326,-0.2336,-0.2207,-0.2207,-0.2208,0,-0.1792,-0.1846,-0.1824,-0.1858,-0.1874,-0.1838,-0.1894,-0.1898,-0.1944,-0.1978,-0.1961,-0.2066,-0.2083,-0.2168,-0.2205,-0.2202,-0.2219,-0.2219,-0.2297,-0.2306,-0.2315,-0.2331,-0.2342,-0.221,-0.221,-0.221,-0.2209,0,-0.1894,-0.1928,-0.1951,-0.1977,-0.1992,-0.202,-0.2013,-0.2035,-0.2041,-0.2051,-0.2131,-0.2152,-0.2217,-0.223,-0.225,-0.2337,-0.2331,-0.2298,-0.2264,-0.2331,-0.2343,-0.2354,-0.2214,-0.2213,-0.2212,-0.2212,0,0,-0.1952,-0.2019,-0.2018,-0.2047,-0.2049,-0.206,-0.2114,-0.2152,-0.217,-0.2201,-0.2272,-0.2335,-0.2332,-0.2364,-0.2378,-0.241,-0.2479,-0.2403,-0.2402,-0.2409,-0.2541,-0.2332,-0.2324,-0.2464,-0.2466,-0.2468,-0.2522,0,-0.2037,-0.2126,-0.2146,-0.2209,-0.2236,-0.2222,-0.2254,-0.2273,-0.2283,-0.2319,-0.2346,-0.2402,-0.2382,-0.2426,-0.2452,-0.2491,-0.2513,-0.2469,-0.2487,-0.2488,-0.2284,-0.233,-0.216,-0.2176,-0.2532,-0.2534,-0.2535,0,-0.209,-0.2148,-0.2245,-0.2296,-0.2308,-0.2336,-0.236,-0.2397,-0.2424,-0.2441,-0.2494,-0.2504,-0.2594,-0.2541,-0.2615,-0.2597,-0.2588,-0.2586,-0.2587,-0.2389,-0.2299,-0.217,-0.2182,-0.2552,-0.2551,-0.255,-0.2548,0,-0.2065,-0.2182,-0.226,-0.2271,-0.2332,-0.2387,-0.2419,-0.2439,-0.2451,-0.2537,-0.2562,-0.2629,-0.2688,-0.2697,-0.2667,-0.2683,-0.2699,-0.2703,-0.2497,-0.2483,-0.2339,-0.2305,-0.2732,-0.2732,-0.2732,-0.2732,-0.2732,0,-0.2072,-0.2119,-0.2252,-0.2267,-0.2347,-0.2392,-0.245,-0.2485,-0.2517,-0.2509,-0.2623,-0.2642,-0.2737,-0.2734,-0.2704,-0.2603,-0.2713,-0.2525,-0.2483,-0.2346,-0.2314,-0.2641,-0.2629,-0.2734,-0.2733,-0.2733,-0.2733,0,-0.199,-0.2081,-0.2161,-0.2282,-0.2326,-0.237,-0.2457,-0.2463,-0.2527,-0.254,-0.2582,-0.2693,-0.269,-0.2674,-0.2692,-0.2633,-0.2561,-0.2478,-0.2299,-0.2232,-0.2349,-0.234,-0.2346,-0.2339,-0.2333,-0.2328,-0.2324,0,-0.1955,-0.1986,-0.2144,-0.2194,-0.2258,-0.2348,-0.2381,-0.2456,-0.2436,-0.2521,-0.2497,-0.257,-0.249,-0.2435,-0.237,-0.2251,-0.2338,-0.206,-0.2041,-0.2351,-0.2311,-0.2311,-0.231,-0.1896,-0.1889,-0.1883,-0.1878,0,-0.1869,-0.1922,-0.1986,-0.2107,-0.2181,-0.2244,-0.2293,-0.2241,-0.2284,-0.2302,-0.2258,-0.2228,-0.2206,-0.204,-0.1922,-0.1845,-0.2072,-0.193,-0.2319,-0.1976,-0.1918,-0.1881,-0.1897,-0.1825,-0.183,-0.1834,-0.1837,-0.1839,-0.1779,-0.1803,-0.1888,-0.1977,-0.2074,-0.2053,-0.1987,-0.2008,-0.1935,-0.1852,-0.1936,-0.1856,-0.1887,-0.1609,-0.1502,-0.149,-0.1644,-0.163,-0.1654,-0.1683,-0.1576,-0.1506,-0.1319,-0.1321,-0.1323,-0.1325,-0.1326,0,-0.1647,-0.1682,-0.1752,-0.183,-0.186,-0.197,-0.1852,-0.1735,-0.1581,-0.1596,-0.1527,-0.1343,-0.1208,-0.1228,-0.1122,-0.1106,-0.1171,-0.1068,-0.1174,-0.1223,-0.1269,-0.1148,-0.0774,-0.0773,-0.0771,-0.077,0,0,-0.1575,-0.1571,-0.1599,-0.1586,-0.1655,-0.1568,-0.1442,-0.1296,-0.1201,-0.1084,-0.1058,-0.1126,-0.1158,-0.0959,-0.0918,-0.0827,-0.1023,-0.0784,-0.1222,-0.1392,-0.1436,-0.1576,-0.144,0,0,0,0,0]},{"header":{"parameterUnit":"m.s-1","parameterCategory":2,"la1":30.2991,"la2":30.254,"lo1":-89.0895,"lo2":-89.0444,"dy":0.0017,"dx":0.0017,"nx":28,"ny":28,"refTime":"2025-12-20T09:00:00:Z","depth":"2","parameterNumber":3,"parameterNumberName":"V-component_of_CURRENTS"},"data":[0,0,0,0,0,0,0,0,0,0,0,0,0,0,0,0,0,0,0,0,0,0,0,0,0,0,0,0,0,0,0,0,0,0,0,0,0,0,0,0,0,0,0,0,0,0,0,0,0,0,0,0,0,0,0,0,0,0,0.0048,0.0049,0,0.0085,0.0086,0.0087,0.0131,0.0131,0.0131,0.0132,0.0248,0.0251,0.0254,0,0,0,0,0,0,0,0,0,0,0,0,0,0.0075,0.0074,0.0048,0.0049,0.0049,0.0085,0.0086,0.0087,0.0131,0.0131,0.0132,0.0132,0.0247,0.0251,0.0254,0,0,0,0,0,0,0,0,0,0,0,0,0,0.0086,0.0074,0.0048,0.0073,0.0075,0.0085,0.0086,0.0087,0.0131,0.0131,0.0132,0.0132,0.0246,0.025,0.0254,0.0268,0,0,0.0267,0.0269,0,0,0,0,0,0,0,0,0.0085,0.0085,0.0069,0.0071,0.0073,0.0101,0.0138,0.015,0.013,0.0113,0.0132,0.0132,0.0204,0.0211,0.0221,0.0274,0.0279,0.0267,0.027,0.0272,0.0273,0,0,0,0,0,0,0,0.0084,0.0084,0.0066,0.0069,0.0072,0.0101,0.0103,0.0141,0.0159,0.0114,0.0117,0.0116,0.0206,0.0216,0.0224,0.0281,0.0267,0.0271,0.0273,0.0275,0.0413,0.0414,0,0,0,0,0,0,0.0069,0.0083,0.0065,0.0067,0.0077,0.01,0.0102,0.0094,0.0157,0.0165,0.0115,0.0117,0.0209,0.0219,0.0228,0.0285,0.0271,0.0275,0.0278,0.0412,0.0413,0.0414,0,0,0,0,0,0,0.0069,0.0067,0.0064,0.0074,0.0075,0.0098,0.0089,0.0095,0.0109,0.0156,0.0166,0.0123,0.021,0.0222,0.0269,0.0289,0.0277,0.0281,0.041,0.0412,0.0414,0.0376,0,0,0,0,0,0,0.007,0.0067,0.0061,0.0072,0.0074,0.0062,0.0088,0.0095,0.0105,0.0109,0.0166,0.0177,0.0211,0.0262,0.0273,0.0294,0.0284,0.0409,0.0411,0.0413,0.0376,0.0377,0.0377,0,0,0,0,0,0.0071,0.0054,0.0061,0.0059,0.0064,0.0061,0.0065,0.0086,0.0105,0.0104,0.0153,0.0176,0.0285,0.0266,0.0278,0.0302,0.0408,0.041,0.0413,0.0376,0.0377,0.0377,0,0,0,0,0,0,0.0067,0.0057,0.0065,0.0047,0.0052,0.0067,0.0068,0.0084,0.012,0.0131,0.0183,0.0197,0.025,0.028,0.0258,0.0351,0.0354,0.0359,0.0322,0.0323,0.0323,0.0322,0.0288,0,0,0,0,0,0.0061,0.0047,0.0046,0.0036,0.0033,0.0052,0.0057,0.0069,0.0097,0.0113,0.0155,0.0211,0.027,0.0297,0.0345,0.0386,0.0404,0.0413,0.0414,0.0414,0.0423,0.0464,0.0468,0.0423,0.0423,0.0423,0,0,0.0061,0.0051,0.0047,0.0034,0.0041,0.0028,0.0057,0.0057,0.0062,0.0122,0.0151,0.0211,0.0282,0.0333,0.0361,0.036,0.0432,0.0417,0.0417,0.0427,0.0467,0.0471,0.0474,0.0425,0.0425,0.0424,0,0,0.0047,0.004,0.0023,0.0015,0.0011,0.0015,0.0012,0.0027,0.005,0.008,0.0141,0.0207,0.0275,0.0336,0.0377,0.0409,0.0434,0.0433,0.0433,0.0471,0.0475,0.0478,0.048,0.0484,0.0432,0.0432,0.0432,0,0.0051,0.0019,0.0021,-0.0003,-0.0008,0.0004,-0.001,0.0005,0.0039,0.0072,0.0083,0.0221,0.0278,0.0364,0.0391,0.0409,0.0426,0.0419,0.0469,0.0473,0.0478,0.048,0.0484,0.043,0.043,0.0431,0.0431,0,0.0017,-0.0006,-0.002,-0.0047,-0.0046,-0.0065,-0.0051,-0.0035,-0.0003,0.0028,0.0114,0.0195,0.0278,0.0318,0.0371,0.0446,0.0445,0.0461,0.0459,0.0479,0.048,0.0486,0.0428,0.0429,0.0429,0.0429,0,0,0.0007,-0.0034,-0.0043,-0.0068,-0.0075,-0.0092,-0.0068,-0.0044,-0.0035,0.003,0.0073,0.0202,0.0253,0.0306,0.038,0.0436,0.048,0.047,0.0472,0.0456,0.0544,0.0523,0.0527,0.0507,0.0508,0.0509,0.0522,0,-0.0022,-0.0093,-0.008,-0.0131,-0.0171,-0.0134,-0.0125,-0.0093,-0.0049,-0.0012,0.0103,0.0163,0.0242,0.0289,0.036,0.0458,0.0499,0.0474,0.0542,0.0544,0.051,0.0535,0.0519,0.0529,0.0528,0.0529,0.0529,0,-0.0071,-0.0118,-0.0177,-0.0203,-0.0209,-0.0224,-0.0207,-0.0187,-0.0111,-0.0068,0.0028,0.0105,0.0226,0.027,0.0426,0.0408,0.0478,0.0543,0.0544,0.0547,0.0535,0.0517,0.0539,0.0539,0.0538,0.0537,0.0537,0,-0.0141,-0.0185,-0.0241,-0.0258,-0.028,-0.027,-0.026,-0.0205,-0.0191,-0.01,-0.008,0.0061,0.0124,0.0249,0.0402,0.0416,0.0546,0.0565,0.0602,0.0598,0.0611,0.0607,0.0656,0.0655,0.0655,0.0655,0.0655,0,-0.0205,-0.0252,-0.0291,-0.0338,-0.0391,-0.035,-0.0366,-0.0332,-0.0276,-0.0267,-0.012,-0.0077,0.0129,0.0236,0.0369,0.0498,0.051,0.0608,0.0612,0.0595,0.0589,0.0628,0.0625,0.0656,0.0656,0.0656,0.0656,0,-0.028,-0.0304,-0.0389,-0.0429,-0.0438,-0.0479,-0.0464,-0.0472,-0.0403,-0.0383,-0.0353,-0.0187,-0.004,0.0135,0.033,0.0436,0.0569,0.0606,0.0556,0.0555,0.0599,0.0594,0.0643,0.0643,0.0643,0.0643,0.0642,0,-0.0324,-0.0385,-0.0484,-0.0541,-0.0561,-0.0597,-0.0616,-0.0554,-0.0551,-0.0447,-0.0446,-0.0292,-0.018,0.0082,0.0305,0.0493,0.0529,0.058,0.0617,0.0605,0.0603,0.0599,0.0594,0.0606,0.0605,0.0605,0.0604,0,-0.0413,-0.0458,-0.0538,-0.0666,-0.0719,-0.0759,-0.0771,-0.0788,-0.0699,-0.0671,-0.0581,-0.0476,-0.0204,0.0043,0.0295,0.0415,0.0554,0.0575,0.0592,0.0607,0.057,0.0568,0.0565,0.0601,0.0601,0.0601,0.0601,0.0602,-0.0477,-0.0565,-0.0678,-0.079,-0.0859,-0.0904,-0.0916,-0.0908,-0.0897,-0.081,-0.069,-0.0498,-0.0243,0.0132,0.032,0.0514,0.0518,0.0593,0.0594,0.0596,0.0586,0.055,0.0573,0.0573,0.0573,0.0574,0.0574,0,-0.0547,-0.0652,-0.078,-0.0908,-0.0997,-0.1001,-0.1008,-0.0988,-0.0971,-0.0847,-0.0733,-0.0448,-0.0164,0.0099,0.0402,0.0566,0.0583,0.059,0.0597,0.0598,0.06,0.0592,0.058,0.058,0.0581,0.0581,0,0,-0.0591,-0.073,-0.0809,-0.0994,-0.1083,-0.1135,-0.1133,-0.1087,-0.0977,-0.086,-0.0692,-0.046,-0.0134,0.0078,0.0291,0.0452,0.0482,0.0462,0.044,0.0424,0.0424,0.0583,0.0569,0,0,0,0,0]}],[{"header":{"parameterUnit":"m.s-1","parameterCategory":2,"la1":30.2991,"la2":30.254,"lo1":-89.0895,"lo2":-89.0444,"dy":0.0017,"dx":0.0017,"nx":28,"ny":28,"refTime":"2025-12-20T09:00:00:Z","depth":"4","parameterNumber":2,"parameterNumberName":"U-component_of_CURRENTS"},"data":[0,0,0,0,0,0,0,0,0,0,0,0,0,0,0,0,0,0,0,0,0,0,0,0,0,0,0,0,0,0,0,0,0,0,0,0,0,0,0,0,0,0,0,0,0,0,0,0,0,0,0,0,0,0,0,0,0,0,-0.1056,-0.1056,0,-0.113,-0.113,-0.1131,-0.1168,-0.1168,-0.1168,-0.1169,-0.1227,-0.1229,-0.123,0,0,0,0,0,0,0,0,0,0,0,0,0,-0.0972,-0.0973,-0.1055,-0.1057,-0.1058,-0.113,-0.113,-0.1131,-0.1168,-0.1168,-0.1168,-0.1169,-0.1227,-0.1228,-0.123,0,0,0,0,0,0,0,0,0,0,0,0,0,-0.1022,-0.0974,-0.1055,-0.1086,-0.1089,-0.1129,-0.113,-0.1132,-0.1168,-0.1168,-0.1168,-0.1169,-0.1226,-0.1228,-0.123,-0.1239,0,0,-0.1237,-0.1238,0,0,0,0,0,0,0,0,-0.1019,-0.1025,-0.108,-0.1084,-0.1088,-0.1141,-0.1123,-0.1167,-0.1168,-0.1137,-0.1169,-0.1169,-0.1198,-0.1202,-0.1214,-0.1242,-0.1245,-0.1237,-0.1238,-0.1239,-0.124,0,0,0,0,0,0,0,-0.1016,-0.1022,-0.1083,-0.1081,-0.1086,-0.1105,-0.1112,-0.1131,-0.1164,-0.1139,-0.1143,-0.1153,-0.12,-0.1212,-0.1216,-0.1245,-0.1237,-0.1239,-0.124,-0.1241,-0.1331,-0.1332,0,0,0,0,0,0,-0.1008,-0.1019,-0.1081,-0.1086,-0.1055,-0.1106,-0.1114,-0.1123,-0.1164,-0.1171,-0.1153,-0.1155,-0.1208,-0.1213,-0.1218,-0.1273,-0.1239,-0.1241,-0.1243,-0.133,-0.1331,-0.1333,0,0,0,0,0,0,-0.1006,-0.1013,-0.1078,-0.1055,-0.1065,-0.1107,-0.1117,-0.1124,-0.1153,-0.1175,-0.1181,-0.1177,-0.1208,-0.1215,-0.1253,-0.1274,-0.1242,-0.1244,-0.1329,-0.133,-0.1332,-0.1357,0,0,0,0,0,0,-0.1003,-0.1011,-0.1021,-0.1055,-0.1066,-0.1111,-0.1117,-0.1125,-0.1159,-0.1162,-0.1197,-0.1202,-0.1209,-0.125,-0.1255,-0.1277,-0.1246,-0.1327,-0.1329,-0.1331,-0.1355,-0.136,-0.1363,0,0,0,0,0,-0.1,-0.1008,-0.1021,-0.1029,-0.1076,-0.1112,-0.112,-0.115,-0.116,-0.1176,-0.1202,-0.1201,-0.1267,-0.1253,-0.1258,-0.1281,-0.1326,-0.1329,-0.1331,-0.1353,-0.1359,-0.1363,0,0,0,0,0,0,-0.0977,-0.1013,-0.1028,-0.1047,-0.1083,-0.1119,-0.1136,-0.1159,-0.1193,-0.1199,-0.1217,-0.1224,-0.1264,-0.1271,-0.1255,-0.1313,-0.1296,-0.13,-0.1311,-0.1316,-0.132,-0.1316,-0.1248,0,0,0,0,0,-0.0976,-0.099,-0.1032,-0.1048,-0.1066,-0.1105,-0.1126,-0.115,-0.1182,-0.1198,-0.1226,-0.1253,-0.1277,-0.1295,-0.1316,-0.135,-0.1345,-0.1368,-0.1372,-0.1376,-0.1377,-0.1397,-0.1403,-0.1341,-0.1341,-0.1341,0,0,-0.0973,-0.0994,-0.1003,-0.1044,-0.1072,-0.1104,-0.1118,-0.1155,-0.1187,-0.1198,-0.1251,-0.127,-0.1289,-0.1327,-0.1345,-0.1337,-0.1389,-0.1379,-0.1382,-0.1381,-0.14,-0.1406,-0.1411,-0.1342,-0.1342,-0.1342,0,0,-0.0965,-0.0991,-0.1001,-0.1034,-0.108,-0.111,-0.1125,-0.1176,-0.1205,-0.1256,-0.127,-0.1302,-0.1349,-0.1364,-0.1376,-0.1417,-0.141,-0.1428,-0.1449,-0.1468,-0.1473,-0.1478,-0.1467,-0.147,-0.1432,-0.1432,-0.1432,0,-0.0962,-0.0979,-0.1011,-0.1035,-0.1066,-0.1114,-0.1143,-0.1181,-0.1242,-0.127,-0.1277,-0.1351,-0.1365,-0.1405,-0.1419,-0.1426,-0.1427,-0.1426,-0.1473,-0.1477,-0.1481,-0.1469,-0.1472,-0.1433,-0.1433,-0.1433,-0.1433,0,-0.0959,-0.0986,-0.0997,-0.1043,-0.1083,-0.1114,-0.1175,-0.122,-0.1264,-0.1303,-0.1364,-0.1389,-0.1431,-0.1442,-0.1443,-0.1483,-0.147,-0.1473,-0.1457,-0.1489,-0.1474,-0.1477,-0.1435,-0.1435,-0.1434,-0.1434,0,0,-0.0913,-0.0981,-0.0984,-0.1014,-0.1092,-0.1122,-0.1186,-0.1253,-0.1297,-0.1357,-0.1408,-0.1452,-0.1473,-0.1487,-0.1498,-0.1515,-0.1536,-0.1509,-0.1509,-0.1492,-0.1562,-0.1484,-0.148,-0.1552,-0.1553,-0.1554,-0.1535,0,-0.0902,-0.0934,-0.0982,-0.1035,-0.1064,-0.1141,-0.12,-0.1271,-0.1333,-0.1396,-0.1435,-0.1485,-0.1489,-0.1511,-0.1532,-0.154,-0.1548,-0.154,-0.154,-0.1539,-0.1461,-0.1482,-0.1557,-0.1537,-0.1538,-0.1538,-0.1539,0,-0.0875,-0.0907,-0.0945,-0.1038,-0.106,-0.1107,-0.1209,-0.127,-0.1369,-0.1418,-0.1479,-0.1515,-0.1557,-0.1551,-0.1583,-0.1581,-0.1573,-0.1572,-0.1571,-0.1492,-0.1467,-0.1503,-0.1544,-0.1543,-0.1543,-0.1543,-0.1542,0,-0.0801,-0.0881,-0.0909,-0.0939,-0.1051,-0.1093,-0.1162,-0.1272,-0.1331,-0.143,-0.1475,-0.1539,-0.1571,-0.1587,-0.1597,-0.1594,-0.1618,-0.161,-0.1528,-0.1522,-0.1585,-0.1581,-0.1623,-0.1623,-0.1623,-0.1623,-0.1623,0,-0.0755,-0.0784,-0.0879,-0.0891,-0.0951,-0.1054,-0.1131,-0.1208,-0.1322,-0.1388,-0.1477,-0.152,-0.1585,-0.1613,-0.1607,-0.1576,-0.1628,-0.1529,-0.1517,-0.1594,-0.1591,-0.1586,-0.1582,-0.1622,-0.1623,-0.1623,-0.1623,0,-0.0665,-0.0725,-0.0758,-0.0864,-0.0911,-0.0948,-0.11,-0.1156,-0.1277,-0.1361,-0.1393,-0.151,-0.1549,-0.1592,-0.1615,-0.1577,-0.1559,-0.1532,-0.1601,-0.1594,-0.1441,-0.1438,-0.1426,-0.1424,-0.1421,-0.1419,-0.1418,0,-0.0624,-0.0627,-0.0707,-0.0727,-0.0775,-0.0868,-0.094,-0.1103,-0.1168,-0.134,-0.1361,-0.1452,-0.1514,-0.1475,-0.1534,-0.1518,-0.1506,-0.1478,-0.1466,-0.1433,-0.1423,-0.1425,-0.1426,-0.1414,-0.1413,-0.1413,-0.1412,0,-0.0541,-0.0556,-0.0571,-0.0596,-0.0658,-0.0757,-0.087,-0.0919,-0.1111,-0.1221,-0.1295,-0.1338,-0.1385,-0.1414,-0.142,-0.1409,-0.1489,-0.1453,-0.1457,-0.1446,-0.1418,-0.1411,-0.1414,-0.1404,-0.1405,-0.1406,-0.1406,0,-0.0468,-0.0441,-0.0441,-0.0462,-0.0526,-0.0618,-0.0718,-0.0826,-0.093,-0.1137,-0.1151,-0.1263,-0.1362,-0.1357,-0.1361,-0.1352,-0.1331,-0.1281,-0.1294,-0.1304,-0.1278,-0.1226,-0.1139,0,0,0,0,0,-0.0404,-0.0354,-0.0329,-0.0351,-0.04,-0.0469,-0.0653,-0.0772,-0.0965,-0.0978,-0.1073,-0.1117,-0.1167,-0.1222,-0.1187,-0.1303,-0.1326,-0.1257,-0.1273,-0.1358,-0.1368,-0.1353,0,0,0,0,0,0,-0.0359,-0.0316,-0.0278,-0.0243,-0.0249,-0.0348,-0.0477,-0.0635,-0.0672,-0.0849,-0.0878,-0.1003,-0.1058,-0.1133,-0.1133,-0.1153,-0.1137,-0.1329,-0.1326,-0.1353,-0.1361,-0.1369,-0.1357,0,0,0,0,0]},{"header":{"parameterUnit":"m.s-1","parameterCategory":2,"la1":30.2991,"la2":30.254,"lo1":-89.0895,"lo2":-89.0444,"dy":0.0017,"dx":0.0017,"nx":28,"ny":28,"refTime":"2025-12-20T09:00:00:Z","depth":"4","parameterNumber":3,"parameterNumberName":"V-component_of_CURRENTS"},"data":[0,0,0,0,0,0,0,0,0,0,0,0,0,0,0,0,0,0,0,0,0,0,0,0,0,0,0,0,0,0,0,0,0,0,0,0,0,0,0,0,0,0,0,0,0,0,0,0,0,0,0,0,0,0,0,0,0,0,-0.0025,-0.0025,0,-0.0016,-0.0016,-0.0016,0.0012,0.0013,0.0013,0.0014,0.007,0.0071,0.0072,0,0,0,0,0,0,0,0,0,0,0,0,0,0.0006,0.0006,-0.0025,-0.0025,-0.0025,-0.0016,-0.0016,-0.0016,0.0012,0.0013,0.0013,0.0014,0.007,0.0071,0.0072,0,0,0,0,0,0,0,0,0,0,0,0,0,0.0003,0.0005,-0.0025,-0.0011,-0.001,-0.0016,-0.0016,-0.0016,0.0012,0.0013,0.0014,0.0014,0.0069,0.0071,0.0072,0.0066,0,0,0.0077,0.0078,0,0,0,0,0,0,0,0,0.0003,0.0002,-0.0013,-0.0012,-0.001,-0.0003,0.0016,0.0014,0.0012,0.0005,0.0014,0.0015,0.0049,0.0052,0.0053,0.0069,0.0071,0.0077,0.0078,0.0079,0.0079,0,0,0,0,0,0,0,0.0003,0.0002,-0.002,-0.0013,-0.0011,0.0003,0.0003,0.0015,0.0024,0.0006,0.0007,0.0006,0.005,0.0051,0.0054,0.0072,0.0077,0.0078,0.0079,0.008,0.0097,0.0097,0,0,0,0,0,0,-0.0003,0.0001,-0.0021,-0.002,-0.0003,0.0002,0.0002,-0.0005,0.0023,0.0027,0.0006,0.0008,0.0048,0.0052,0.0056,0.0053,0.0079,0.008,0.0081,0.0098,0.0097,0.0097,0,0,0,0,0,0,-0.0002,-0.0005,-0.0021,-0.0009,-0.0011,0.0,-0.0008,-0.0006,-0.0001,0.0022,0.0028,0.0008,0.0049,0.0054,0.0065,0.0056,0.0081,0.0082,0.0098,0.0098,0.0097,0.0045,0,0,0,0,0,0,-0.0002,-0.0005,-0.0011,-0.001,-0.0012,-0.003,-0.0009,-0.0006,-0.0003,-0.0001,0.0026,0.0032,0.005,0.0062,0.0066,0.0058,0.0083,0.0099,0.0098,0.0097,0.0048,0.0043,0.0039,0,0,0,0,0,-0.0001,-0.0017,-0.0011,-0.0014,-0.0021,-0.0031,-0.0031,-0.0019,-0.0004,-0.001,0.0011,0.0031,0.006,0.0063,0.0068,0.006,0.0099,0.0098,0.0097,0.005,0.0044,0.0039,0,0,0,0,0,0,-0.0004,-0.0016,-0.001,-0.0028,-0.003,-0.0027,-0.0032,-0.0021,-0.001,-0.0005,0.0024,0.003,0.0036,0.0055,0.0057,0.0063,0.0084,0.0084,0.0046,0.0041,0.0037,0.0038,0.0084,0,0,0,0,0,-0.0009,-0.0025,-0.0029,-0.0042,-0.0046,-0.0038,-0.0039,-0.0032,-0.0024,-0.0018,0.0002,0.0022,0.0033,0.0043,0.0056,0.0058,0.0094,0.0057,0.0053,0.0049,0.0054,0.0101,0.0102,0.0094,0.0094,0.0094,0,0,-0.0012,-0.0022,-0.0029,-0.0044,-0.0044,-0.0064,-0.0036,-0.0045,-0.0054,-0.0014,-0.0016,0.0006,0.003,0.0031,0.0036,0.0048,0.0068,0.0048,0.0044,0.0051,0.01,0.0101,0.0102,0.0093,0.0093,0.0093,0,0,-0.0042,-0.0038,-0.0068,-0.0075,-0.0084,-0.008,-0.0083,-0.0081,-0.0072,-0.0074,-0.0046,-0.0027,-0.0012,0.0006,0.0016,-0.0003,0.0042,-0.0,-0.0019,0.0026,0.0028,0.0029,0.0067,0.0073,-0.0001,-0.0001,-0.0001,0,-0.0044,-0.0085,-0.0076,-0.0107,-0.0118,-0.0091,-0.0123,-0.0113,-0.0105,-0.0095,-0.0081,-0.0044,-0.0025,-0.0013,-0.0021,-0.0012,0.0021,-0.0003,0.0021,0.0024,0.0027,0.0065,0.0072,-0.0003,-0.0003,-0.0003,-0.0002,0,-0.01,-0.0131,-0.0148,-0.0179,-0.0185,-0.0207,-0.0196,-0.019,-0.017,-0.0153,-0.0131,-0.0098,-0.0072,-0.0066,-0.005,-0.0026,-0.0007,0.0009,0.0035,0.0024,0.0065,0.0073,-0.0007,-0.0006,-0.0005,-0.0005,0,0,-0.0109,-0.0177,-0.0182,-0.0215,-0.0226,-0.0241,-0.0246,-0.0244,-0.024,-0.0209,-0.0197,-0.0168,-0.0129,-0.0114,-0.0084,-0.0044,-0.0003,-0.0012,-0.0008,0.0026,0.0098,0.0078,0.0085,0.0021,0.0022,0.0023,0.0116,0,-0.0155,-0.024,-0.0252,-0.0315,-0.0355,-0.0331,-0.0338,-0.0323,-0.0294,-0.027,-0.0211,-0.019,-0.0154,-0.0139,-0.0092,-0.0023,0.0018,-0.0029,0.0103,0.0107,0.0091,0.0093,0.0027,0.0122,0.0124,0.0126,0.0127,0,-0.0201,-0.0258,-0.0339,-0.0393,-0.0404,-0.0427,-0.0423,-0.0427,-0.0374,-0.0346,-0.0295,-0.0243,-0.018,-0.0149,-0.0023,-0.0052,0.0018,0.0075,0.008,0.0087,0.0102,0.0138,0.0142,0.0141,0.014,0.0139,0.0138,0,-0.0218,-0.0309,-0.0379,-0.04,-0.0454,-0.047,-0.048,-0.0448,-0.0444,-0.0387,-0.0366,-0.0278,-0.0229,-0.0127,-0.0009,-0.001,0.0133,0.0146,0.0195,0.0195,0.0209,0.0206,0.0235,0.0235,0.0235,0.0235,0.0234,0,-0.0258,-0.0312,-0.04,-0.0439,-0.0503,-0.0513,-0.0544,-0.053,-0.0501,-0.0488,-0.0406,-0.0366,-0.0217,-0.0117,-0.0013,0.0115,0.0134,0.0196,0.0219,0.0183,0.0176,0.0214,0.0211,0.0238,0.0237,0.0237,0.0236,0,-0.0259,-0.0322,-0.041,-0.0493,-0.0519,-0.0558,-0.0599,-0.061,-0.0576,-0.0555,-0.0537,-0.0418,-0.0284,-0.0145,0.0028,0.0103,0.0225,0.0263,0.021,0.0227,0.0259,0.0252,0.0332,0.0332,0.0332,0.0333,0.0333,0,-0.0274,-0.0323,-0.0443,-0.05,-0.0544,-0.0606,-0.064,-0.0642,-0.0645,-0.0582,-0.0565,-0.044,-0.0348,-0.0114,0.0027,0.0218,0.0241,0.0299,0.0285,0.0256,0.027,0.0263,0.0255,0.0333,0.0333,0.0333,0.0333,0,-0.0293,-0.0332,-0.0398,-0.0512,-0.0583,-0.0663,-0.0708,-0.0717,-0.0698,-0.0676,-0.0572,-0.0444,-0.0294,-0.011,0.0033,0.0169,0.0259,0.0301,0.0302,0.0289,0.0258,0.027,0.0263,0.0333,0.0333,0.0333,0.0333,0,-0.029,-0.0332,-0.0415,-0.0503,-0.0604,-0.0683,-0.072,-0.0719,-0.0717,-0.0645,-0.0608,-0.0441,-0.0337,-0.0136,-0.0002,0.0126,0.0159,0.0196,0.0203,0.0205,0.0133,0.0072,0.0115,0,0,0,0,0,-0.0286,-0.0318,-0.0403,-0.051,-0.0608,-0.0664,-0.0741,-0.0764,-0.0751,-0.0682,-0.0643,-0.05,-0.028,-0.0177,-0.0051,-0.0013,0.0167,0.0137,0.0209,0.0335,0.0335,0.027,0,0,0,0,0,0,-0.0288,-0.0349,-0.0381,-0.0482,-0.0552,-0.0659,-0.0714,-0.0724,-0.0682,-0.0647,-0.0526,-0.0461,-0.0248,-0.0333,-0.0035,0.0002,0.0062,0.0243,0.0245,0.0335,0.0335,0.0334,0.0268,0,0,0,0,0]}]]